CCA1549 ZBAA-ZSSS

Flight info

Callsign CCA1549
Flight time N/A
Altitude 39100
Route ELKUR W40 YQG W142 DALIM A593 DPX A470 DALNU W166 ZJ W167 SASAN R343 PK
Aircraft A359/H-SDE2E3FGILRWXY/LB2

Departure

Time N/A
Airport Beijing Capital International Airport (ZBAA)

Arrival

Time 2026-04-30 10:17
Airport Shanghai Hongqiao International Airport (ZSSS)
Time Latitude Longitude Altitude Speed Heading
2026-04-30 09:49 32.72142 119.06967 39212 ft 551 kts 149°
2026-04-30 09:49 32.69010 119.09564 39232 ft 551 kts 149°
2026-04-30 09:49 32.62734 119.14758 39256 ft 551 kts 150°
2026-04-30 09:50 32.56450 119.19949 39246 ft 552 kts 150°
2026-04-30 09:50 32.52407 119.23281 39226 ft 552 kts 150°
2026-04-30 09:51 32.46102 119.28476 39418 ft 549 kts 150°
2026-04-30 09:51 32.39843 119.33621 39378 ft 551 kts 150°
2026-04-30 09:52 32.33513 119.38818 39278 ft 553 kts 150°
2026-04-30 09:52 32.27227 119.43969 39307 ft 552 kts 150°
2026-04-30 09:53 32.20895 119.49151 39310 ft 550 kts 150°
2026-04-30 09:53 32.17793 119.51685 38982 ft 548 kts 150°
2026-04-30 09:53 32.14643 119.54260 37907 ft 554 kts 150°
2026-04-30 09:54 32.11435 119.56873 36793 ft 561 kts 150°
2026-04-30 09:54 32.08213 119.59493 35675 ft 568 kts 150°
2026-04-30 09:54 32.04961 119.62145 34569 ft 573 kts 150°
2026-04-30 09:54 32.01693 119.64809 33597 ft 575 kts 150°
2026-04-30 09:55 31.98420 119.67484 32320 ft 573 kts 151°
2026-04-30 09:55 31.95274 119.70331 31256 ft 574 kts 142°
2026-04-30 09:55 31.92524 119.73727 30198 ft 576 kts 131°
2026-04-30 09:55 31.90198 119.77519 29136 ft 575 kts 126°
2026-04-30 09:56 31.87984 119.81409 28020 ft 572 kts 126°
2026-04-30 09:56 31.85807 119.85285 26910 ft 567 kts 125°
2026-04-30 09:56 31.83660 119.89087 25795 ft 560 kts 126°
2026-04-30 09:56 31.81520 119.92851 24643 ft 550 kts 126°
2026-04-30 09:57 31.79414 119.96525 23745 ft 536 kts 126°
2026-04-30 09:57 31.77358 120.00098 23081 ft 523 kts 126°
2026-04-30 09:57 31.75334 120.03598 22278 ft 513 kts 126°
2026-04-30 09:57 31.73338 120.07043 21428 ft 505 kts 125°
2026-04-30 09:58 31.71374 120.10436 20538 ft 497 kts 125°
2026-04-30 09:58 31.69463 120.13732 19670 ft 489 kts 125°
2026-04-30 09:58 31.67567 120.17009 18835 ft 480 kts 125°
2026-04-30 09:58 31.65709 120.20215 17955 ft 472 kts 124°
2026-04-30 09:59 31.62103 120.26430 16675 ft 448 kts 124°
2026-04-30 09:59 31.58914 120.32457 15930 ft 428 kts 115°
2026-04-30 10:00 31.56771 120.38831 15204 ft 415 kts 107°
2026-04-30 10:00 31.55843 120.42034 14846 ft 415 kts 107°
2026-04-30 10:01 31.53989 120.48408 14132 ft 410 kts 107°
2026-04-30 10:01 31.53058 120.51552 13767 ft 407 kts 108°
2026-04-30 10:01 31.52134 120.54661 13417 ft 404 kts 108°
2026-04-30 10:02 31.50245 120.60988 12621 ft 423 kts 108°
2026-04-30 10:02 31.49288 120.64184 12273 ft 419 kts 107°
2026-04-30 10:02 31.48325 120.67393 11885 ft 416 kts 108°
2026-04-30 10:02 31.47373 120.70574 11496 ft 412 kts 108°
2026-04-30 10:03 31.46423 120.73747 11113 ft 409 kts 108°
2026-04-30 10:03 31.45488 120.76861 10722 ft 406 kts 108°
2026-04-30 10:03 31.44556 120.79951 10386 ft 400 kts 108°
2026-04-30 10:03 31.43654 120.82949 10309 ft 385 kts 108°
2026-04-30 10:04 31.42780 120.85843 10230 ft 371 kts 108°
2026-04-30 10:04 31.41931 120.88649 10183 ft 368 kts 107°
2026-04-30 10:04 31.41087 120.91449 10480 ft 354 kts 107°
2026-04-30 10:04 31.40279 120.94119 10336 ft 344 kts 108°
2026-04-30 10:05 31.39490 120.96722 10072 ft 339 kts 108°
2026-04-30 10:05 31.38704 120.99311 9842 ft 333 kts 107°
2026-04-30 10:05 31.37940 121.01824 9593 ft 328 kts 107°
2026-04-30 10:05 31.37175 121.04337 9467 ft 324 kts 107°
2026-04-30 10:06 31.36425 121.06800 9308 ft 321 kts 107°
2026-04-30 10:06 31.35680 121.09247 9154 ft 318 kts 107°
2026-04-30 10:06 31.34944 121.11652 9015 ft 315 kts 107°
2026-04-30 10:06 31.34200 121.14059 8890 ft 311 kts 107°
2026-04-30 10:07 31.33470 121.16402 8760 ft 309 kts 108°
2026-04-30 10:07 31.32737 121.18756 8593 ft 307 kts 107°
2026-04-30 10:07 31.31829 121.21002 8374 ft 309 kts 128°
2026-04-30 10:07 31.30143 121.22514 8227 ft 303 kts 161°
2026-04-30 10:08 31.28121 121.22889 8117 ft 293 kts 184°
2026-04-30 10:08 31.26053 121.22761 7885 ft 293 kts 187°
2026-04-30 10:08 31.24001 121.22650 7714 ft 293 kts 184°
2026-04-30 10:08 31.21981 121.22643 7606 ft 290 kts 182°
2026-04-30 10:09 31.19962 121.22709 7488 ft 288 kts 180°
2026-04-30 10:09 31.17978 121.22805 7365 ft 285 kts 180°
2026-04-30 10:09 31.15995 121.22912 7250 ft 282 kts 180°
2026-04-30 10:09 31.14010 121.23023 6842 ft 291 kts 179°
2026-04-30 10:10 31.11972 121.23131 6262 ft 299 kts 179°
2026-04-30 10:10 31.09882 121.23245 5547 ft 302 kts 178°
2026-04-30 10:10 31.07774 121.23361 4811 ft 305 kts 178°
2026-04-30 10:10 31.05652 121.23480 4077 ft 306 kts 178°
2026-04-30 10:11 31.03554 121.23614 3425 ft 302 kts 173°
2026-04-30 10:11 31.01619 121.24389 3054 ft 287 kts 140°
2026-04-30 10:11 31.00473 121.26125 2841 ft 266 kts 105°
2026-04-30 10:11 31.00417 121.28155 2633 ft 243 kts 66°
2026-04-30 10:12 31.01347 121.29625 2549 ft 217 kts 36°
2026-04-30 10:12 31.02434 121.30772 2385 ft 206 kts 50°
2026-04-30 10:12 31.03180 121.32144 2273 ft 194 kts 59°
2026-04-30 10:12 31.03734 121.33538 2041 ft 185 kts 63°
2026-04-30 10:13 31.04476 121.34661 1796 ft 167 kts 23°
2026-04-30 10:13 31.05503 121.34816 1797 ft 140 kts 350°
2026-04-30 10:13 31.06452 121.34619 1830 ft 144 kts 349°
2026-04-30 10:13 31.07498 121.34423 1786 ft 151 kts 352°
2026-04-30 10:14 31.08512 121.34280 1778 ft 140 kts 353°
2026-04-30 10:14 31.09540 121.34180 1731 ft 161 kts 355°
2026-04-30 10:14 31.11808 121.34050 1294 ft 159 kts 356°
2026-04-30 10:15 31.12898 121.33997 1091 ft 156 kts 355°
2026-04-30 10:15 31.13988 121.33937 884 ft 155 kts 355°
2026-04-30 10:15 31.15044 121.33885 681 ft 149 kts 356°
2026-04-30 10:15 31.16073 121.33827 491 ft 150 kts 355°
2026-04-30 10:16 31.17120 121.33771 295 ft 150 kts 357°
2026-04-30 10:16 31.18163 121.33718 85 ft 150 kts 357°
2026-04-30 10:16 31.19149 121.33660 17 ft 121 kts
2026-04-30 10:17 31.20115 121.33607 20 ft 29 kts 355°
2026-04-30 10:17 31.20372 121.33511 21 ft 10 kts 328°
2026-04-30 10:17 31.20427 121.33467 22 ft 9 kts 322°
2026-04-30 10:18 31.20476 121.33431 23 ft 7 kts 332°
2026-04-30 10:18 31.20504 121.33415 23 ft 0 kts 337°
2026-04-30 10:18 31.20507 121.33413 23 ft 0 kts 328°
2026-04-30 10:19 31.20517 121.33387 23 ft 2 kts 268°
2026-04-30 10:19 31.20512 121.33374 23 ft 0 kts 237°
2026-04-30 10:19 31.20512 121.33372 23 ft 0 kts 246°
2026-04-30 10:19 31.20512 121.33368 23 ft 0 kts 270°
2026-04-30 10:20 31.20515 121.33362 23 ft 1 kts 308°
2026-04-30 10:20 31.20534 121.33369 23 ft 2 kts 43°
2026-04-30 10:20 31.20551 121.33381 23 ft 3 kts 23°
2026-04-30 10:21 31.20582 121.33391 23 ft 5 kts
2026-04-30 10:21 31.20628 121.33391 23 ft 7 kts 358°
2026-04-30 10:21 31.20689 121.33388 23 ft 9 kts 357°
2026-04-30 10:21 31.20765 121.33384 23 ft 11 kts 357°
2026-04-30 10:22 31.20853 121.33379 23 ft 13 kts 357°
2026-04-30 10:22 31.20955 121.33373 23 ft 15 kts 356°
2026-04-30 10:22 31.21067 121.33369 23 ft 17 kts 357°
2026-04-30 10:22 31.21126 121.33363 23 ft 6 kts 342°
2026-04-30 10:23 31.21162 121.33336 23 ft 4 kts 306°
2026-04-30 10:23 31.21165 121.33289 23 ft 7 kts 266°
2026-04-30 10:23 31.21162 121.33222 23 ft 9 kts 268°
2026-04-30 10:23 31.21160 121.33140 23 ft 11 kts 268°
2026-04-30 10:24 31.21156 121.33043 23 ft 9 kts 266°
2026-04-30 10:24 31.21126 121.32985 23 ft 9 kts 203°
2026-04-30 10:24 31.21101 121.32983 23 ft 1 kts 173°
2026-04-30 10:24 31.21080 121.32985 23 ft 4 kts 175°
2026-04-30 10:25 31.21042 121.32988 23 ft 6 kts 177°
2026-04-30 10:25 31.20987 121.32990 23 ft 9 kts 178°
2026-04-30 10:25 31.20918 121.32991 23 ft 10 kts 176°
2026-04-30 10:25 31.20838 121.32996 23 ft 12 kts 177°
2026-04-30 10:26 31.20778 121.32999 23 ft 14 kts 178°
2026-04-30 10:26 31.20670 121.33004 23 ft 16 kts 177°
2026-04-30 10:26 31.20546 121.33010 21 ft 19 kts 178°
2026-04-30 10:26 31.20400 121.33021 22 ft 21 kts 178°
2026-04-30 10:27 31.20250 121.33028 23 ft 21 kts 177°
2026-04-30 10:27 31.20095 121.33036 23 ft 23 kts 178°
2026-04-30 10:27 31.19926 121.33045 23 ft 25 kts 175°
2026-04-30 10:27 31.19773 121.33054 23 ft 19 kts 177°
2026-04-30 10:28 31.19668 121.33058 23 ft 5 kts 184°
2026-04-30 10:28 31.19662 121.33053 23 ft 1 kts 228°
2026-04-30 10:28 31.19659 121.33037 23 ft 3 kts 266°
2026-04-30 10:28 31.19658 121.33021 23 ft 4 kts 267°
2026-04-30 10:29 31.19657 121.32977 23 ft 6 kts 266°
2026-04-30 10:29 31.19654 121.32916 23 ft 8 kts 267°
2026-04-30 10:29 31.19651 121.32838 23 ft 10 kts 266°
2026-04-30 10:29 31.19647 121.32754 23 ft 7 kts 266°
2026-04-30 10:30 31.19645 121.32701 23 ft 4 kts 274°
2026-04-30 10:30 31.19658 121.32668 23 ft 4 kts 306°
2026-04-30 10:30 31.19671 121.32630 23 ft 6 kts 268°
2026-04-30 10:30 31.19670 121.32594 23 ft 3 kts 269°
2026-04-30 10:31 31.19670 121.32568 23 ft 2 kts 268°
2026-04-30 10:31 31.19669 121.32549 23 ft 1 kts 267°
2026-04-30 10:31 31.19669 121.32541 23 ft 1 kts 267°
2026-04-30 10:31 31.19668 121.32533 23 ft 0 kts 268°